Location: PSU-Greenbush Astrophysical Observatory
(37.5140°N, 94.9880°W)
Time: 23:41:45
(UTC-06:00)

deb Explorer IX - Pass Details

Date: 30 January 2020
Orbit: 549 x 1099 km, 38.8° (Epoch: 27 February)

Event Time Altitude Azimuth Distance (km) Brightness Sun altitude
Rises 01:45:09 0° 284° (WNW) 3,887 - -64.7°
Reaches altitude 10° 01:48:06 10° 277° (W) 2,946 - -64.3°
Maximum altitude 01:54:42 38° 213° (SSW) 1,595 - -63.4°
Drops below altitude 10° 02:01:04 10° 148° (SSE) 2,831 - -62.4°
Sets 02:03:51 0° 140° (SE) 3,720 - -62.0°
